GW3733 Weather Reports


time (UTC)temp
C
wind
direction
speed
KPH
gust
KPH
rain 1hr
cm
rain 24hr
cm
rain mn
cm
humidity
%
barometer
mb
20260508010030 13 341 0.0 0.0 0.00 0.00 0.00 47 1006.6
20260508005526 13 2 1.6 1.6 0.00 0.00 0.00 47 1006.5
20260508005023 13 208 1.6 3.2 0.00 0.00 0.00 47 1006.5
20260508004519 13 93 4.8 4.8 0.00 0.00 0.00 48 1006.3
20260508004016 13 358 0.0 0.0 0.00 0.00 0.00 49 1006.3
20260508003512 14 353 1.6 1.6 0.00 0.00 0.00 45 1006.4
20260508003010 14 354 0.0 0.0 0.00 0.00 0.00 44 1006.5
20260508002505 14 112 1.6 3.2 0.00 0.00 0.00 44 1006.2
20260508002003 14 216 3.2 3.2 0.00 0.00 0.00 46 1006.2
20260508001458 14 346 1.6 1.6 0.00 0.00 0.00 44 1006.2
20260508000954 14 306 1.6 1.6 0.00 0.00 0.00 46 1006.0
20260508000445 14 349 0.0 1.6 0.00 0.00 0.00 46 1006.0
20260507235942 14 30 0.0 1.6 0.00 0.00 0.00 43 1005.7
20260507235439 15 343 0.0 1.6 0.00 0.00 0.00 43 1005.7
20260507234937 15 13 4.8 4.8 0.00 0.00 0.00 43 1005.6
20260507234433 15 318 0.0 1.6 0.00 0.00 0.00 42 1005.7
20260507233929 15 349 1.6 3.2 0.00 0.00 0.00 45 1005.6
20260507233427 15 37 1.6 1.6 0.00 0.00 0.00 40 1005.6
20260507232925 15 275 1.6 4.8 0.00 0.00 0.00 38 1005.6
20260507232421 16 339 0.0 1.6 0.00 0.00 0.00 41 1005.4
20260507231918 16 43 0.0 1.6 0.00 0.00 0.00 39 1005.6
20260507231415 16 347 0.0 0.0 0.00 0.00 0.00 41 1005.6
20260507230911 16 218 6.4 6.4 0.00 0.00 0.00 40 1005.3
20260507230409 16 298 1.6 1.6 0.00 0.00 0.00 41 1005.3
20260507225908 16 206 1.6 1.6 0.00 0.00 0.00 40 1005.1
20260507225405 16 313 4.8 9.7 0.00 0.00 0.00 39 1005.4
20260507224901 16 321 3.2 3.2 0.00 0.00 0.00 40 1005.2
20260507224357 17 323 0.0 0.0 0.00 0.00 0.00 37 1005.3
20260507223853 17 2 1.6 1.6 0.00 0.00 0.00 43 1004.8
20260507223350 17 316 6.4 6.4 0.00 0.00 0.00 38 1004.7
20260507222847 17 324 3.2 4.8 0.00 0.00 0.00 37 1004.7
20260507222343 17 337 3.2 4.8 0.00 0.00 0.00 37 1004.9
20260507221840 17 317 3.2 3.2 0.00 0.00 0.00 42 1004.7
20260507221337 17 226 6.4 9.7 0.00 0.00 0.00 38 1004.5
20260507220832 17 92 3.2 4.8 0.00 0.00 0.00 40 1004.5
20260507220331 17 352 1.6 4.8 0.00 0.00 0.00 39 1004.5
20260507215827 17 318 3.2 4.8 0.00 0.00 0.00 41 1004.5
20260507215324 17 292 6.4 6.4 0.00 0.00 0.00 37 1004.3
20260507214821 17 339 3.2 4.8 0.00 0.00 0.00 46 1004.4
20260507214319 17 2 3.2 3.2 0.00 0.00 0.00 38 1004.4
20260507213813 18 343 6.4 9.7 0.00 0.00 0.00 38 1004.1
20260507213311 18 316 3.2 3.2 0.00 0.00 0.00 36 1004.2
20260507212808 18 345 3.2 3.2 0.00 0.00 0.00 37 1004.0
20260507212306 17 25 1.6 1.6 0.00 0.00 0.00 42 1004.1
20260507211800 18 35 9.7 12.9 0.00 0.00 0.00 36 1003.9
20260507211257 18 340 6.4 6.4 0.00 0.00 0.00 38 1003.9
20260507210754 18 328 3.2 3.2 0.00 0.00 0.00 37 1003.7
20260507210251 18 29 1.6 1.6 0.00 0.00 0.00 38 1003.7
20260507205747 17 295 4.8 4.8 0.00 0.00 0.00 36 1004.1
20260507205244 17 352 3.2 3.2 0.00 0.00 0.00 40 1004.2
20260507204740 17 314 6.4 9.7 0.00 0.00 0.00 40 1004.1
20260507204238 18 345 3.2 4.8 0.00 0.00 0.00 37 1003.9
20260507203736 18 345 4.8 9.7 0.00 0.00 0.00 34 1003.8
20260507203233 18 299 1.6 3.2 0.00 0.00 0.00 37 1004.2
20260507202729 20 307 3.2 3.2 0.00 0.00 0.00 34 1003.9
20260507202225 19 324 6.4 6.4 0.00 0.00 0.00 35 1004.0
20260507201720 19 0 1.6 1.6 0.00 0.00 0.00 37 1004.1
20260507201218 18 146 3.2 4.8 0.00 0.00 0.00 34 1004.2
20260507200714 18 304 3.2 3.2 0.00 0.00 0.00 35 1004.2
20260507200210 19 332 0.0 1.6 0.00 0.00 0.00 34 1004.1
20260507195706 19 336 1.6 1.6 0.00 0.00 0.00 38 1004.1
20260507195203 20 2 3.2 3.2 0.00 0.00 0.00 39 1004.1
20260507194700 19 22 6.4 11.3 0.00 0.00 0.00 37 1004.2
20260507194156 19 339 3.2 4.8 0.00 0.00 0.00 39 1004.2
20260507193653 20 277 3.2 4.8 0.00 0.00 0.00 35 1004.3
20260507193150 20 311 4.8 4.8 0.00 0.00 0.00 36 1004.4
20260507192646 19 333 4.8 4.8 0.00 0.00 0.00 38 1004.2
20260507192143 19 229 6.4 9.7 0.00 0.00 0.00 35 1004.2
20260507191639 19 259 4.8 6.4 0.00 0.00 0.00 34 1004.4
20260507191136 18 305 8.0 9.7 0.00 0.00 0.00 41 1004.4
20260507190633 18 326 1.6 3.2 0.00 0.00 0.00 36 1004.3
20260507190132 19 293 3.2 4.8 0.00 0.00 0.00 36 1004.3
20260507185630 18 1 8.0 9.7 0.00 0.00 0.00 38 1004.3
20260507185126 19 318 3.2 3.2 0.00 0.00 0.00 37 1004.2
20260507184624 19 8 1.6 1.6 0.00 0.00 0.00 45 1004.4
20260507184122 19 338 4.8 4.8 0.00 0.00 0.00 39 1004.5
20260507183618 19 353 1.6 1.6 0.00 0.00 0.00 41 1004.7
20260507183115 18 310 3.2 4.8 0.00 0.00 0.00 44 1004.3
20260507182611 19 334 3.2 4.8 0.00 0.00 0.00 42 1004.5
20260507182107 18 328 1.6 1.6 0.00 0.00 0.00 38 1004.7
20260507181604 18 354 1.6 1.6 0.00 0.00 0.00 45 1004.9
20260507181100 18 15 4.8 4.8 0.00 0.00 0.00 40 1004.7
20260507180558 18 343 1.6 1.6 0.00 0.00 0.00 40 1004.5
20260507180054 18 341 3.2 3.2 0.00 0.00 0.00 44 1004.9
20260507175550 18 350 1.6 1.6 0.00 0.00 0.00 52 1005.0
20260507175048 17 317 0.0 1.6 0.00 0.00 0.00 44 1005.1
20260507174544 17 320 1.6 1.6 0.00 0.00 0.00 42 1005.2
20260507174042 17 48 3.2 3.2 0.00 0.00 0.00 42 1005.7
20260507173539 17 315 4.8 4.8 0.00 0.00 0.00 48 1005.4
20260507173036 17 32 6.4 6.4 0.00 0.00 0.00 43 1005.7
20260507172532 17 332 1.6 3.2 0.00 0.00 0.00 46 1005.6
20260507172029 16 89 4.8 4.8 0.00 0.00 0.00 46 1005.8
20260507171524 17 333 1.6 1.6 0.00 0.00 0.00 43 1005.8
20260507171022 17 308 3.2 4.8 0.00 0.00 0.00 49 1006.0
20260507170519 16 337 3.2 6.4 0.00 0.00 0.00 44 1006.2
20260507170016 16 3 6.4 9.7 0.00 0.00 0.00 45 1006.1
20260507165511 16 331 3.2 4.8 0.00 0.00 0.00 47 1006.4
20260507165008 16 6 3.2 4.8 0.00 0.00 0.00 46 1006.4
20260507164504 16 1 3.2 3.2 0.00 0.00 0.00 46 1006.5
20260507164001 16 236 4.8 4.8 0.00 0.00 0.00 48 1006.5
20260507163458 16 331 1.6 1.6 0.00 0.00 0.00 50 1006.5
20260507162955 16 346 3.2 4.8 0.00 0.00 0.00 49 1006.5
20260507162451 16 322 0.0 1.6 0.00 0.00 0.00 51 1006.7
20260507161948 16 243 1.6 3.2 0.00 0.00 0.00 47 1006.8
20260507161444 16 28 3.2 4.8 0.00 0.00 0.00 47 1006.9
20260507160941 16 282 3.2 3.2 0.00 0.00 0.00 54 1007.0
20260507160437 15 326 1.6 4.8 0.00 0.00 0.00 47 1006.9
20260507155933 15 162 3.2 4.8 0.00 0.00 0.00 47 1007.1
20260507155429 16 6 4.8 9.7 0.00 0.00 0.00 50 1007.2
20260507154926 15 251 3.2 3.2 0.00 0.00 0.00 51 1007.2
20260507154423 15 96 3.2 4.8 0.00 0.00 0.00 47 1007.2
20260507153920 15 313 4.8 6.4 0.00 0.00 0.00 49 1007.4
20260507153417 15 264 3.2 3.2 0.00 0.00 0.00 52 1007.5
20260507152913 14 244 3.2 3.2 0.00 0.00 0.00 50 1007.4
20260507152409 14 353 1.6 1.6 0.00 0.00 0.00 54 1007.2
20260507151905 14 32 6.4 11.3 0.00 0.00 0.00 52 1007.4
20260507151402 14 12 3.2 4.8 0.00 0.00 0.00 50 1007.4
20260507150859 14 358 0.0 0.0 0.00 0.00 0.00 54 1007.5
20260507150356 13 5 1.6 3.2 0.00 0.00 0.00 52 1007.8
20260507145852 14 286 6.4 6.4 0.00 0.00 0.00 55 1007.9
20260507145348 15 333 1.6 1.6 0.00 0.00 0.00 51 1008.2
20260507144845 13 13 1.6 1.6 0.00 0.00 0.00 49 1008.3
20260507144343 13 349 3.2 3.2 0.00 0.00 0.00 55 1008.6
20260507143839 13 321 6.4 6.4 0.00 0.00 0.00 52 1008.5
20260507143336 12 347 1.6 1.6 0.00 0.00 0.00 54 1008.7
20260507142832 13 20 3.2 4.8 0.00 0.00 0.00 54 1008.4
20260507142324 13 11 1.6 1.6 0.00 0.00 0.00 53 1008.4
20260507141821 13 16 0.0 0.0 0.00 0.00 0.00 58 1008.4
20260507141317 12 18 3.2 3.2 0.00 0.00 0.00 59 1008.6
20260507140813 11 358 0.0 0.0 0.00 0.00 0.00 57 1008.6
20260507140310 11 328 3.2 3.2 0.00 0.00 0.00 59 1008.8
20260507135808 11 1 1.6 1.6 0.00 0.00 0.00 60 1008.9
20260507135306 12 343 1.6 1.6 0.00 0.00 0.00 59 1008.9
20260507134802 11 2 0.0 1.6 0.00 0.00 0.00 60 1008.9
20260507134258 11 4 1.6 1.6 0.00 0.00 0.00 59 1009.2
20260507133753 11 352 1.6 3.2 0.00 0.00 0.00 58 1009.0
20260507133250 11 352 0.0 1.6 0.00 0.00 0.00 59 1008.9
20260507132748 11 38 3.2 4.8 0.00 0.00 0.00 59 1009.2
20260507132244 11 357 0.0 0.0 0.00 0.00 0.00 62 1009.2
20260507131741 10 3 1.6 1.6 0.00 0.00 0.00 58 1009.2
20260507131238 10 348 1.6 1.6 0.00 0.00 0.00 57 1009.1
20260507130735 10 344 0.0 3.2 0.00 0.00 0.00 60 1009.2
20260507130233 10 356 3.2 3.2 0.00 0.00 0.00 57 1009.1
20260507125732 10 28 1.6 1.6 0.00 0.00 0.00 62 1009.0
20260507125229 10 350 0.0 0.0 0.00 0.00 0.00 62 1009.2
20260507124726 10 4 1.6 1.6 0.00 0.00 0.00 61 1009.5
20260507124222 10 354 0.0 0.0 0.00 0.00 0.00 59 1009.5
20260507123721 10 329 1.6 1.6 0.00 0.00 0.00 58 1009.3
20260507123218 10 352 1.6 3.2 0.00 0.00 0.00 59 1009.3
20260507122713 10 311 4.8 6.4 0.00 0.00 0.00 60 1009.2
20260507122209 10 6 0.0 0.0 0.00 0.00 0.00 61 1009.2
20260507121705 10 5 0.0 0.0 0.00 0.00 0.00 60 1009.1
20260507121201 10 338 0.0 0.0 0.00 0.00 0.00 63 1009.0
20260507120657 10 355 0.0 0.0 0.00 0.00 0.00 62 1009.0
20260507120155 10 341 0.0 0.0 0.00 0.00 0.00 65 1009.1
20260507115651 10 2 0.0 0.0 0.00 0.00 0.00 66 1009.0
20260507115146 10 3 0.0 1.6 0.00 0.00 0.00 64 1009.0
20260507114643 10 356 0.0 0.0 0.00 0.00 0.00 70 1009.0
20260507114140 10 351 0.0 0.0 0.00 0.00 0.00 70 1009.0
20260507113637 10 5 0.0 0.0 0.00 0.00 0.00 71 1009.0
20260507113134 10 355 0.0 0.0 0.00 0.00 0.00 68 1008.9
20260507112632 10 7 1.6 1.6 0.00 0.00 0.00 70 1009.0
20260507112128 10 344 0.0 0.0 0.00 0.00 0.00 70 1008.8
20260507111626 10 10 0.0 0.0 0.00 0.00 0.00 72 1008.8
20260507111122 9 352 0.0 0.0 0.00 0.00 0.00 74 1008.5
20260507110618 9 0 0.0 0.0 0.00 0.00 0.00 78 1008.8
20260507110115 9 3 0.0 0.0 0.00 0.00 0.00 80 1008.6
20260507105612 9 8 0.0 0.0 0.00 0.00 0.00 78 1008.7
20260507105108 9 359 0.0 0.0 0.00 0.00 0.00 78 1008.5
20260507104606 9 356 0.0 0.0 0.00 0.00 0.00 80 1008.6
20260507104101 9 351 0.0 0.0 0.00 0.00 0.00 81 1008.6
20260507103558 9 1 0.0 0.0 0.00 0.00 0.00 82 1008.3
20260507103054 9 2 0.0 0.0 0.00 0.00 0.00 81 1008.4
20260507102551 9 4 0.0 0.0 0.00 0.00 0.00 76 1008.4
20260507102047 9 2 0.0 0.0 0.00 0.00 0.00 77 1008.1
20260507101542 10 354 0.0 0.0 0.00 0.00 0.00 77 1008.0
20260507101039 10 358 0.0 0.0 0.00 0.00 0.00 77 1007.9
20260507100536 10 357 0.0 0.0 0.00 0.00 0.00 77 1007.8
20260507100035 10 355 0.0 0.0 0.00 0.00 0.00 74 1008.0
20260507095532 10 338 3.2 3.2 0.00 0.00 0.00 73 1007.9
20260507095029 10 341 0.0 1.6 0.00 0.00 0.00 76 1008.0
20260507094525 10 352 0.0 0.0 0.00 0.00 0.00 77 1007.9
20260507094022 10 341 1.6 1.6 0.00 0.00 0.00 76 1007.9
20260507093519 10 0 0.0 0.0 0.00 0.00 0.00 77 1007.8
20260507093018 10 356 0.0 0.0 0.00 0.00 0.00 78 1007.6
20260507092514 10 354 0.0 0.0 0.00 0.00 0.00 77 1007.5
20260507092011 10 352 0.0 1.6 0.00 0.00 0.00 78 1007.6
20260507091508 10 357 0.0 0.0 0.00 0.00 0.00 77 1007.5
20260507091004 10 359 1.6 1.6 0.00 0.00 0.00 79 1007.6
20260507090459 10 347 3.2 3.2 0.00 0.00 0.00 78 1007.8
20260507085956 10 339 3.2 3.2 0.00 0.00 0.00 80 1007.9
20260507085453 10 339 3.2 3.2 0.00 0.00 0.00 80 1007.8
20260507084950 10 3 0.0 1.6 0.00 0.00 0.00 82 1008.0
20260507084447 10 315 1.6 3.2 0.00 0.00 0.00 81 1007.6
20260507083944 10 343 1.6 1.6 0.00 0.00 0.00 84 1008.0
20260507083440 10 358 0.0 0.0 0.00 0.00 0.00 84 1008.2
20260507082936 10 5 0.0 0.0 0.00 0.00 0.00 87 1007.8
20260507082432 10 1 0.0 0.0 0.00 0.00 0.00 86 1007.5
20260507081930 10 4 0.0 0.0 0.00 0.00 0.00 86 1007.6
20260507081426 10 6 0.0 0.0 0.00 0.00 0.00 86 1007.9
20260507080923 10 11 0.0 1.6 0.00 0.00 0.00 85 1007.5
20260507080419 10 359 0.0 1.6 0.00 0.00 0.00 86 1007.8
20260507075914 10 324 3.2 4.8 0.00 0.00 0.00 86 1007.6
20260507075410 10 346 0.0 0.0 0.00 0.00 0.00 85 1007.6
20260507074907 10 346 1.6 1.6 0.00 0.00 0.00 86 1007.4
20260507074404 10 351 0.0 0.0 0.00 0.00 0.00 85 1007.5
20260507073902 10 357 0.0 0.0 0.00 0.00 0.00 89 1007.4
20260507073358 10 356 0.0 0.0 0.00 0.00 0.00 88 1007.2
20260507072855 10 356 0.0 0.0 0.00 0.00 0.00 87 1007.3
20260507072352 10 348 0.0 0.0 0.00 0.00 0.00 87 1007.3
20260507071850 10 210 1.6 3.2 0.00 0.00 0.00 89 1007.3
20260507071347 10 327 1.6 1.6 0.00 0.00 0.00 88 1007.5
20260507070843 10 3 0.0 0.0 0.00 0.00 0.00 88 1007.0
20260507070340 10 1 0.0 0.0 0.00 0.00 0.00 87 1007.4
20260507065837 10 357 0.0 0.0 0.00 0.00 0.00 86 1007.3
20260507065334 11 340 0.0 0.0 0.00 0.00 0.00 84 1007.3
20260507064831 10 13 0.0 0.0 0.00 0.00 0.00 84 1007.4
20260507064329 10 12 0.0 0.0 0.00 0.00 0.00 87 1007.2
20260507063827 10 357 0.0 0.0 0.00 0.00 0.00 88 1007.5
20260507063324 11 47 1.6 1.6 0.00 0.00 0.00 87 1007.9
20260507062820 10 19 0.0 0.0 0.00 0.00 0.00 84 1007.9
20260507062317 11 358 0.0 0.0 0.00 0.00 0.00 84 1008.0
20260507061815 11 348 0.0 0.0 0.00 0.00 0.00 86 1007.5
20260507061313 11 12 0.0 0.0 0.00 0.00 0.00 83 1007.9
20260507060811 11 359 0.0 0.0 0.00 0.00 0.00 84 1007.9
20260507060308 11 350 0.0 0.0 0.00 0.00 0.00 85 1008.1
20260507055804 11 30 1.6 1.6 0.00 0.00 0.00 85 1008.0
20260507055259 11 17 0.0 1.6 0.00 0.00 0.00 84 1007.9
20260507054756 11 88 0.0 1.6 0.00 0.00 0.00 83 1008.0
20260507054253 11 184 3.2 3.2 0.00 0.00 0.00 84 1007.9
20260507053750 11 81 3.2 3.2 0.00 0.00 0.00 83 1008.1
20260507053247 11 195 3.2 3.2 0.00 0.00 0.00 87 1008.1
20260507052746 11 92 1.6 1.6 0.00 0.00 0.00 85 1007.8
20260507052242 11 184 1.6 3.2 0.00 0.00 0.00 84 1007.9
20260507051741 11 12 0.0 1.6 0.00 0.00 0.00 84 1008.0
20260507051237 11 2 0.0 0.0 0.00 0.00 0.00 85 1007.8
20260507050733 11 50 0.0 1.6 0.00 0.00 0.00 86 1007.8
20260507050231 11 68 3.2 3.2 0.00 0.00 0.00 85 1007.5
20260507045727 11 351 0.0 0.0 0.00 0.00 0.00 87 1007.8
20260507045224 11 2 0.0 0.0 0.00 0.00 0.00 87 1007.8
20260507044721 11 352 0.0 0.0 0.00 0.00 0.00 86 1007.5
20260507044217 11 355 0.0 0.0 0.00 0.00 0.00 87 1007.9
20260507043714 11 346 1.6 1.6 0.00 0.00 0.00 86 1007.8
20260507043211 11 333 1.6 1.6 0.00 0.00 0.00 86 1007.6
20260507042707 11 320 1.6 3.2 0.00 0.00 0.00 86 1007.9
20260507042202 11 350 0.0 1.6 0.00 0.00 0.00 85 1007.8
20260507041659 11 341 1.6 1.6 0.00 0.00 0.00 85 1008.0
20260507041156 11 6 1.6 1.6 0.00 0.00 0.00 86 1007.6
20260507040653 11 291 3.2 3.2 0.00 0.00 0.00 86 1008.0
20260507040149 11 12 1.6 3.2 0.00 0.00 0.00 88 1007.3
20260507035645 11 7 1.6 3.2 0.00 0.18 0.18 87 1007.3
20260507035141 11 4 0.0 1.6 0.00 0.18 0.18 86 1007.6
20260507034638 11 333 1.6 1.6 0.00 0.18 0.18 87 1008.0
20260507034136 11 355 0.0 0.0 0.00 0.18 0.18 87 1008.2
20260507033634 11 350 1.6 1.6 0.00 0.18 0.18 88 1008.4
20260507033131 11 349 0.0 1.6 0.00 0.18 0.18 88 1008.0
20260507032629 11 3 0.0 0.0 0.00 0.18 0.18 88 1006.9
20260507032124 11 14 1.6 1.6 0.00 0.18 0.18 89 1007.5
20260507031621 11 359 0.0 1.6 0.00 0.18 0.18 89 1007.5
20260507031113 12 48 0.0 0.0 0.00 0.18 0.18 89 1007.5
20260507030609 12 355 0.0 0.0 0.00 0.18 0.18 89 1008.0
20260507030107 12 22 3.2 3.2 0.00 0.18 0.18 89 1008.1
20260507025604 12 343 1.6 1.6 0.00 0.18 0.18 89 1007.9
20260507025101 12 319 6.4 9.7 0.00 0.18 0.18 89 1007.8
20260507024559 12 358 0.0 0.0 0.00 0.18 0.18 89 1007.6
20260507024056 12 5 1.6 3.2 0.00 0.18 0.18 89 1007.8
20260507023551 12 350 3.2 3.2 0.00 0.18 0.18 89 1007.9
20260507023049 12 354 1.6 1.6 0.00 0.18 0.18 88 1007.6
20260507022545 12 7 1.6 1.6 0.00 0.18 0.18 88 1007.3
20260507022040 12 9 0.0 0.0 0.00 0.18 0.18 87 1007.1
20260507021537 12 31 0.0 1.6 0.00 0.18 0.18 87 1007.3
20260507021033 12 6 0.0 1.6 0.00 0.18 0.18 87 1007.0
20260507020531 12 4 0.0 1.6 0.00 0.18 0.18 87 1007.2
20260507020027 12 5 0.0 1.6 0.00 0.18 0.18 87 1007.2
20260507015526 12 306 4.8 4.8 0.00 0.18 0.18 87 1007.2
20260507015023 12 353 0.0 0.0 0.00 0.18 0.18 87 1006.9
20260507014519 12 344 1.6 1.6 0.00 0.18 0.18 87 1007.0
20260507014015 12 8 1.6 3.2 0.00 0.18 0.18 86 1006.9
20260507013512 12 13 0.0 1.6 0.00 0.18 0.18 87 1007.2
20260507013009 12 5 1.6 1.6 0.00 0.18 0.18 88 1006.8
20260507012506 13 125 1.6 3.2 0.00 0.18 0.18 86 1007.1
20260507012002 12 4 1.6 1.6 0.00 0.18 0.18 87 1007.1
20260507011500 13 358 0.0 0.0 0.00 0.18 0.18 88 1007.1
20260507010955 13 3 1.6 1.6 0.00 0.18 0.18 86 1007.2
20260507010450 13 2 0.0 0.0 0.00 0.18 0.18 87 1006.7